Voltar ao catálogo

TIANQI 26

AtivoComunicaçõesLEO
NORAD 59910·PAYLOAD·🇨🇳 China

Lançado May 29, 2024 de Yellow Sea Launch Area

Loading…

Próximas Passagens (próximas 24 horas)

TLE

AtualizadoSource: Space-Track

Época: Sep 14, 2026, 11:25 UTC

1 59910U 24102B   26257.47615116 -.00000026  00000-0  70169-4 0  9992
2 59910  44.9723 224.1892 0011822 305.1291  54.8433 13.99176425117416

Acompanhe TIANQI 26 em tempo real com AllMySat

Download on the App Store